Weather History for Amsterdam, Netherlands

Change the Weather History Date:

Thursday, April 4, 2013

  Actual Average Record
Temperature  
Mean Temperature 36 °F -  
Max Temperature 41 °F 55 °F 64 °F (2005)
Min Temperature 31 °F 41 °F 31 °F (2013)
Degree Days  
Heating Degree Days 29    
Moisture  
Dew Point 26 °F    
Average Humidity 61    
Maximum Humidity 70    
Minimum Humidity 48    
Precipitation  
Precipitation 0.00 in - - ()
Sea Level Pressure  
Sea Level Pressure 29.94 in    
Wind  
Wind Speed 13 mph ()    
Max Wind Speed 21 mph    
Max Gust Speed 30 mph    
Visibility 8.0 miles    
Events      
Averages and records for this station are not official NWS values.
T = Trace of Precipitation, MM = Missing Value Source: Averaged Metar Reports

Daily Weather History Graph

Daily Weather History Graph

Search for Another Location

Airport:

Trip Planner

Search our weather history database for the weather conditions in past years. The results will help you decide how hot, cold, wet, or windy it might be!

Date:

Astronomy

Apr. 04, 2013 Rise Set
Actual Time 7:08 AM CEST 8:20 PM CEST
Civil Twilight 6:33 AM CEST 8:55 PM CEST
Nautical Twilight 5:51 AM CEST 9:37 PM CEST
Astronomical Twilight 5:05 AM CEST 10:24 PM CEST
Moon 4:08 AM CEST (4/4) 1:38 PM CEST (4/4)
Length of Visible Light 14h 21m
Length of Day
13h 11m
Last Quarter, 36% of the Moon is Illuminated
Apr 4
Last Quarter
Apr 10
New
Apr 18
First Quarter
Apr 25
Full
May 2
Last Quarter

Hourly Weather History & Observations

Time (CEST) Temp. Windchill Dew Point Humidity Pressure Visibility Wind Dir Wind Speed Gust Speed Precip Events Conditions
12:25 AM 35.6 °F 28.6 °F 21.2 °F 56% 30.01 in - East 9.2 mph - N/A   Clear
12:55 AM 35.6 °F 28.6 °F 21.2 °F 56% 30.01 in - ENE 9.2 mph - N/A   Clear
1:25 AM 35.6 °F 25.9 °F 23.0 °F 60% 30.01 in - ENE 16.1 mph - N/A   Clear
1:55 AM 35.6 °F 26.2 °F 23.0 °F 60% 30.01 in 6.2 mi ENE 15.0 mph - N/A   Partly Cloudy
2:00 AM 34 °F - 23 °F 52% 30.01 in 19 mi ENE 13.4 mph - -   Partly Cloudy
2:25 AM 33.8 °F 24.8 °F 23.0 °F 65% 29.98 in - ENE 12.7 mph - N/A   Clear
2:55 AM 32.0 °F 23.0 °F 23.0 °F 69% 29.98 in 6.2 mi ENE 11.5 mph - N/A   Partly Cloudy
3:25 AM 32.0 °F 21.6 °F 23.0 °F 69% 29.98 in 6.2 mi ENE 15.0 mph - N/A   Partly Cloudy
3:55 AM 33.8 °F 23.9 °F 23.0 °F 65% 29.98 in 6.2 mi ENE 15.0 mph - N/A   Mostly Cloudy
4:25 AM 33.8 °F 23.9 °F 23.0 °F 65% 29.98 in 6.2 mi ENE 15.0 mph - N/A   Mostly Cloudy
4:55 AM 33.8 °F 23.5 °F 23.0 °F 65% 29.98 in 6.2 mi ENE 16.1 mph - N/A   Overcast
5:00 AM 33 °F - 23 °F 54% 29.98 in 16 mi ENE 15.7 mph - -   Overcast
5:25 AM 33.8 °F 23.2 °F 23.0 °F 65% 29.95 in 6.2 mi ENE 17.3 mph - N/A   Overcast
5:55 AM 33.8 °F 23.5 °F 23.0 °F 65% 29.95 in 6.2 mi ENE 16.1 mph - N/A   Overcast
6:25 AM 35.6 °F 25.5 °F 23.0 °F 60% 29.95 in 6.2 mi ENE 17.3 mph - N/A   Overcast
6:55 AM 35.6 °F 25.5 °F 24.8 °F 65% 29.95 in 6.2 mi ENE 17.3 mph - N/A   Overcast
7:25 AM 35.6 °F 25.2 °F 24.8 °F 65% 29.95 in 6.2 mi ENE 18.4 mph 29.9 mph N/A   Overcast
7:55 AM 35.6 °F 25.2 °F 24.8 °F 65% 29.95 in 6.2 mi ENE 18.4 mph 29.9 mph N/A   Overcast
8:00 AM 35 °F - 25 °F 56% 29.97 in 14 mi ENE 20.1 mph - -   Partly Cloudy
8:25 AM 35.6 °F 25.2 °F 24.8 °F 65% 29.95 in 6.2 mi ENE 18.4 mph - N/A   Overcast
8:55 AM 35.6 °F 24.5 °F 24.8 °F 65% 29.95 in 6.2 mi ENE 20.7 mph - N/A   Overcast
9:25 AM 35.6 °F 25.2 °F 26.6 °F 70% 29.95 in 6.2 mi ENE 18.4 mph - N/A   Overcast
9:55 AM 35.6 °F 25.9 °F 24.8 °F 65% 29.95 in 6.2 mi ENE 16.1 mph 27.6 mph N/A   Overcast
10:25 AM 35.6 °F 25.9 °F 26.6 °F 70% 29.95 in 6.2 mi ENE 16.1 mph - N/A   Overcast
10:55 AM 35.6 °F 25.5 °F 24.8 °F 65% 29.95 in 6.2 mi ENE 17.3 mph - N/A   Overcast
11:00 AM 36 °F - 25 °F 54% 29.97 in 17 mi ENE 17.9 mph - -   Overcast
11:25 AM 37.4 °F 27.2 °F 26.6 °F 65% 29.95 in 6.2 mi ENE 19.6 mph - N/A   Mostly Cloudy
12:25 PM 37.4 °F 27.8 °F 26.6 °F 65% 29.95 in 6.2 mi ENE 17.3 mph - N/A   Mostly Cloudy
12:55 PM 37.4 °F 27.8 °F 26.6 °F 65% 29.95 in 6.2 mi ENE 17.3 mph - N/A   Mostly Cloudy
1:25 PM 39.2 °F 29.6 °F 26.6 °F 61% 29.95 in 6.2 mi NE 19.6 mph - N/A   Mostly Cloudy
1:55 PM 39.2 °F 30.2 °F 26.6 °F 61% 29.92 in 6.2 mi NE 17.3 mph - N/A   Mostly Cloudy
2:00 PM 39 °F - 27 °F 50% 29.94 in 19 mi ENE 15.7 mph - -   Partly Cloudy
2:25 PM 39.2 °F 29.8 °F 24.8 °F 56% 29.92 in 6.2 mi ENE 18.4 mph - N/A   Mostly Cloudy
2:55 PM 39.2 °F 30.2 °F 26.6 °F 61% 29.92 in 6.2 mi ENE 17.3 mph - N/A   Mostly Cloudy
3:25 PM 39.2 °F 30.2 °F 26.6 °F 61% 29.92 in 6.2 mi ENE 17.3 mph - N/A   Mostly Cloudy
3:55 PM 39.2 °F 30.8 °F 28.4 °F 65% 29.89 in 6.2 mi NE 15.0 mph - N/A   Mostly Cloudy
4:25 PM 39.2 °F 30.8 °F 26.6 °F 61% 29.89 in 6.2 mi ENE 15.0 mph - N/A   Mostly Cloudy
4:55 PM 39.2 °F 33.0 °F 28.4 °F 65% 29.89 in 6.2 mi ENE 9.2 mph - N/A   Overcast
5:00 PM 40 °F - 27 °F 48% 29.91 in 19 mi ENE 13.4 mph - -   Overcast
5:25 PM 39.2 °F 30.8 °F 26.6 °F 61% 29.89 in 6.2 mi ENE 15.0 mph - N/A   Overcast
5:55 PM 39.2 °F 30.8 °F 26.6 °F 61% 29.89 in 6.2 mi ENE 15.0 mph - N/A   Overcast
6:25 PM 41.0 °F 34.3 °F 26.6 °F 57% 29.89 in 6.2 mi East 11.5 mph - N/A   Mostly Cloudy
6:55 PM 41.0 °F 34.3 °F 26.6 °F 57% 29.89 in 6.2 mi ENE 11.5 mph - N/A   Mostly Cloudy
7:25 PM 41.0 °F 34.7 °F 26.6 °F 57% 29.89 in 6.2 mi East 10.4 mph - N/A   Mostly Cloudy
7:55 PM 39.2 °F 33.0 °F 26.6 °F 61% 29.89 in 6.2 mi ENE 9.2 mph - N/A   Overcast
8:00 PM 40 °F - 27 °F 48% 29.89 in 17 mi ENE 8.9 mph - -   Partly Cloudy
8:25 PM 41.0 °F 35.2 °F 26.6 °F 57% 29.89 in 6.2 mi ENE 9.2 mph - N/A   Overcast
8:55 PM 41.0 °F 34.7 °F 26.6 °F 57% 29.89 in 6.2 mi ENE 10.4 mph - N/A   Overcast
9:25 PM 41.0 °F 34.7 °F 28.4 °F 61% 29.89 in 6.2 mi NE 10.4 mph - N/A   Scattered Clouds
9:55 PM 39.2 °F 31.2 °F 28.4 °F 65% 29.89 in 6.2 mi NE 13.8 mph - N/A   Partly Cloudy
10:25 PM 39.2 °F 32.0 °F 30.2 °F 70% 29.89 in 6.2 mi NNE 11.5 mph - N/A   Partly Cloudy
10:55 PM 41.0 °F 33.5 °F 30.2 °F 65% 29.89 in 6.2 mi ENE 13.8 mph - N/A   Partly Cloudy
11:00 PM 41 °F - 29 °F 51% 29.90 in 19 mi ENE 13.4 mph - -   Partly Cloudy
11:25 PM 41.0 °F 33.1 °F 28.4 °F 61% 29.89 in 6.2 mi ENE 15.0 mph - N/A   Mostly Cloudy
11:55 PM 41.0 °F 33.5 °F 28.4 °F 61% 29.89 in 6.2 mi ENE 13.8 mph - N/A   Mostly Cloudy